カタログに戻る

KUIPER-00138

運用中通信LEO
NORAD 65964·PAYLOAD·🇺🇸 United States

打ち上げ Oct 14, 2025 から Cape Canaveral Space Force Station

Loading…

次のパス (今後24時間)

TLE

最新Source: CelesTrak SupGP

元期: Sep 14, 2026, 22:01 UTC

1 65964C 25228T   26257.91775463 -.00015677  00000+0 -20523-2 0  2571
2 65964  51.8972 226.2964 0000816  62.4028  37.3700 14.79944523    11

AllMySatでKUIPER-00138をリアルタイム追跡

Download on the App Store